Wind_Speed
12 11 11 11 11 12 12 12 12 11 11 11 11 12 12 12 12 12 12 12 12 13 13 14 15 16 17 18 19 20 22 23 24 25 26 28 29 30 32 33 34 35 37 38 38 39 40 41 42 44 45 46 48 48 49 49 50 51 52 53 53 54 54 56 57 59 61 63 64 64 63 62 62 61 61 60 59 58 57 56 55 55 55 55 55
13 12 12 12 12 12 13 13 13 13 13 13 13 13 13 13 13 13 14 14 14 14 15 16 17 18 19 20 21 22 24 25 26 27 28 29 31 32 33 35 36 37 38 39 40 41 42 43 44 45 47 48 49 50 50 50 51 52 53 53 54 54 55 57 59 61 63 65 65 65 64 63 62 62 61 60 59 58 57 56 56 56 56 57 57
14 13 13 13 13 13 14 14 14 14 14 14 14 15 15 15 14 15 15 16 16 16 17 18 19 20 21 22 23 24 26 27 28 29 30 31 33 34 35 36 37 39 40 41 42 43 44 45 46 47 48 49 50 51 51 51 52 53 54 54 54 55 57 58 61 63 66 66 66 65 64 64 63 63 61 60 59 57 57 57 57 58 58 58 58
15 15 14 14 14 14 15 15 15 15 15 16 16 16 16 15 16 16 17 17 18 18 19 20 21 22 23 24 25 26 28 29 30 31 32 33 34 36 37 38 39 40 42 43 44 45 46 47 48 49 50 51 52 52 52 53 53 54 55 55 56 57 58 61 63 66 67 67 66 66 65 65 64 62 61 59 58 58 58 58 59 59 59 58 58
15 15 16 15 15 15 16 16 16 17 17 17 17 17 17 17 17 18 18 19 20 20 20 21 23 24 25 26 27 28 30 31 32 33 34 35 36 37 38 40 41 42 43 45 46 47 47 48 49 50 51 52 53 53 54 54 54 55 56 57 57 58 61 63 66 68 68 68 67 66 66 65 64 62 60 59 59 60 60 60 60 59 59 59 59
16 16 17 17 17 17 17 17 18 18 19 19 19 18 18 18 18 19 20 21 22 22 23 23 24 26 27 28 29 30 31 33 33 34 35 36 37 39 40 41 43 44 45 46 47 48 49 50 51 52 52 53 54 55 55 56 56 57 57 58 59 61 63 66 68 69 69 68 67 67 66 65 63 62 61 61 61 61 61 60 60 60 60 60 60
17 17 18 18 18 18 18 19 19 19 20 20 20 20 19 19 19 20 21 22 23 24 25 26 27 28 29 30 31 32 33 34 35 36 37 38 39 40 41 43 44 46 47 48 49 50 50 51 52 53 54 54 55 56 57 57 57 58 59 59 61 63 65 68 69 70 69 68 68 67 66 65 63 62 62 62 62 61 61 61 60 60 60 60 60
18 18 18 19 19 19 20 20 21 21 21 22 22 22 21 21 21 22 23 24 25 26 27 28 29 30 31 32 33 34 34 35 36 37 38 39 40 41 43 44 46 47 48 49 50 51 52 53 53 54 55 56 56 57 58 58 58 59 60 61 63 65 68 70 70 70 69 69 68 67 66 64 63 63 63 63 62 62 61 61 61 61 60 61 61
19 19 20 20 20 21 21 21 22 22 22 23 23 24 23 23 23 24 25 26 26 27 28 30 31 32 33 34 35 35 36 37 37 38 39 40 42 43 44 46 47 48 49 51 52 53 53 54 54 55 56 56 57 58 58 59 60 61 62 63 65 67 70 71 71 70 69 69 68 67 65 64 64 64 64 63 62 62 61 61 61 61 61 61 62
21 21 21 21 22 22 22 23 23 24 24 24 24 25 25 25 25 25 26 27 28 29 30 31 32 33 34 35 36 37 37 38 39 40 41 42 43 44 46 47 48 50 51 52 53 54 54 55 55 56 56 57 57 58 59 60 61 62 63 65 67 70 71 71 70 70 69 69 68 67 65 65 65 64 63 62 62 61 61 61 61 62 62 63 63
23 23 22 22 23 23 24 24 25 25 25 26 25 25 26 27 27 27 27 28 29 30 32 33 34 34 35 36 37 38 39 40 41 42 42 43 44 46 47 48 49 51 52 53 54 54 55 56 56 56 56 57 58 58 59 60 62 63 65 67 69 71 71 71 70 70 70 69 67 66 65 65 65 64 63 63 62 62 62 62 63 63 64 65 66
24 24 23 23 23 24 25 25 26 26 27 27 26 26 27 28 29 29 29 30 30 31 33 34 35 36 37 38 39 40 41 42 42 43 44 45 46 47 48 49 51 52 53 54 55 55 56 57 57 57 57 57 58 59 60 61 63 64 66 69 71 72 71 70 70 70 69 68 66 66 66 65 64 64 64 64 63 63 63 63 64 65 66 68 69
24 24 24 24 24 25 26 27 27 28 28 28 27 27 28 29 30 31 31 32 33 33 34 35 36 38 38 40 41 42 42 43 43 44 45 46 47 48 49 50 52 53 54 55 55 56 57 57 57 57 58 58 58 59 61 62 63 65 68 70 71 71 70 70 70 69 68 67 66 66 66 65 65 64 64 64 64 64 64 65 67 68 69 70 71
26 25 24 24 25 25 26 28 29 30 30 29 28 28 29 30 31 32 33 34 35 36 37 37 38 39 40 41 42 43 44 44 45 45 46 47 48 49 50 51 52 53 54 55 56 57 57 57 58 58 58 59 59 60 61 63 65 67 69 71 71 70 70 70 69 68 67 66 67 67 66 65 65 64 64 64 64 65 66 68 69 70 71 72 74
26 25 24 25 25 26 27 29 30 31 31 31 31 31 31 31 32 33 34 35 36 38 39 39 40 41 41 42 43 44 45 45 46 46 47 48 49 50 51 52 53 54 55 56 57 57 57 58 58 58 58 59 60 61 62 64 66 69 70 70 70 70 70 69 68 67 66 67 67 66 65 65 65 65 65 65 66 67 69 70 71 72 74 76 78
28 27 26 26 27 28 28 30 31 31 32 33 33 33 33 33 34 34 35 36 37 39 40 41 42 42 43 43 44 45 46 47 47 47 48 49 50 51 52 53 54 55 56 57 57 58 58 58 58 58 59 60 60 62 63 66 68 70 70 70 70 70 70 68 66 66 67 67 67 66 65 65 65 65 66 66 68 69 71 71 73 75 77 79 80
29 29 28 28 29 29 30 31 32 32 33 34 34 34 34 35 36 36 36 37 39 41 42 42 43 43 44 45 45 46 47 48 48 49 49 50 51 52 53 54 54 55 56 57 58 58 58 58 59 59 59 60 61 63 65 67 69 70 70 70 70 70 69 67 66 66 67 66 66 65 64 65 65 66 67 68 70 71 72 73 75 78 80 81 81
30 30 30 31 31 31 32 33 33 33 33 34 35 35 35 36 37 37 38 39 40 42 43 44 44 45 46 46 47 47 48 48 49 49 50 51 52 53 53 54 55 56 57 57 58 58 58 58 59 59 60 61 62 64 66 69 70 71 70 70 70 69 67 66 66 66 66 65 64 64 65 66 66 67 69 70 71 73 74 76 79 81 82 82 83
31 32 32 32 33 34 35 35 35 34 34 35 36 36 37 37 38 38 39 41 42 43 44 45 46 47 47 48 49 49 49 49 50 50 52 52 53 54 54 55 55 56 57 57 58 58 58 58 59 59 60 62 64 66 68 70 71 70 70 70 69 67 66 65 65 65 65 65 65 65 66 67 68 69 71 72 73 75 77 80 81 82 83 84 86
32 33 33 34 35 36 36 37 37 36 36 37 38 38 38 38 39 40 41 42 43 44 45 46 47 48 49 49 50 51 51 51 51 52 53 53 54 54 55 55 56 56 56 57 57 57 57 58 59 59 61 63 65 67 69 70 70 70 70 69 67 66 65 65 65 65 65 65 66 67 67 68 69 71 72 73 75 77 80 82 83 84 85 86 89
34 34 35 35 36 37 38 38 38 38 38 39 39 39 39 39 40 41 42 43 44 45 46 47 48 49 50 50 51 52 52 53 53 53 54 54 55 55 55 55 55 55 55 56 56 56 57 57 58 60 62 64 66 68 69 69 69 69 69 67 66 65 65 65 65 65 66 66 67 68 68 70 71 72 73 75 77 80 82 84 85 86 87 89 91
36 36 36 36 37 39 40 40 40 40 40 41 41 41 41 41 42 42 43 45 46 47 47 48 49 50 51 52 52 53 53 54 55 55 55 55 56 56 56 55 55 54 54 54 54 55 56 57 59 61 63 65 66 67 68 68 68 69 68 66 66 66 65 65 65 66 67 68 68 68 70 71 72 73 75 77 80 82 84 85 87 87 88 90 93
38 38 38 38 38 40 41 42 42 41 42 42 43 42 43 43 43 44 45 46 47 48 49 49 50 51 52 53 54 54 55 55 55 56 56 56 56 56 55 54 53 53 52 52 52 53 55 57 59 61 63 65 66 67 67 68 68 68 66 66 66 66 65 65 65 66 68 68 69 69 71 72 73 74 76 79 81 83 85 86 88 88 89 91 94
39 40 40 40 40 41 43 43 44 43 43 44 44 44 45 45 45 46 47 48 49 50 51 51 52 53 54 54 55 56 56 56 56 56 57 57 56 55 54 53 52 51 51 51 52 53 55 58 60 62 64 65 66 66 66 67 67 66 65 66 66 65 65 65 66 67 68 68 69 70 71 72 74 76 79 81 83 85 86 87 88 88 90 92 94
40 41 42 42 42 43 44 45 46 45 45 46 46 46 47 47 47 47 49 50 51 52 52 53 54 55 55 56 56 57 57 57 57 57 57 57 56 55 53 52 51 51 51 51 52 54 57 59 61 63 64 65 65 65 66 66 65 64 65 66 65 65 65 65 66 67 68 69 70 71 72 73 75 78 80 82 84 86 86 87 88 89 91 92 93
42 42 43 43 43 44 45 47 47 47 47 48 48 48 49 49 49 49 51 52 53 54 54 55 56 56 57 57 57 57 57 58 58 58 57 57 56 54 53 52 51 51 51 52 54 56 59 61 63 64 65 65 64 64 64 63 63 64 65 65 65 64 65 65 66 67 68 69 70 71 72 74 77 79 82 84 85 86 87 87 88 89 91 92 93
44 44 45 44 44 45 46 47 48 49 49 50 50 51 51 51 51 52 53 54 55 56 56 56 57 57 58 58 58 58 58 58 59 58 58 57 55 54 53 52 51 51 52 53 56 59 61 63 64 64 64 64 64 63 63 62 63 64 65 64 64 65 65 66 67 68 69 70 70 71 73 76 78 80 83 85 86 86 87 88 89 90 91 92 92
46 47 48 47 45 46 48 49 50 51 51 52 52 53 53 54 54 54 56 56 57 57 58 58 58 59 59 59 59 59 59 59 59 58 58 57 55 53 52 51 51 52 53 55 58 60 62 63 64 64 63 63 63 62 62 63 64 64 64 65 65 65 67 67 68 69 69 70 71 73 75 78 80 82 83 85 86 86 87 88 89 90 91 92 92
48 49 50 50 47 47 49 50 51 52 53 53 54 55 55 56 56 57 58 58 58 59 59 59 59 59 59 59 59 60 60 59 59 58 57 56 54 53 52 52 52 53 55 57 59 61 62 63 63 62 62 62 62 62 63 64 65 64 65 65 65 66 68 69 69 69 69 70 72 74 77 79 81 83 84 85 86 86 87 89 90 91 91 91 92
50 51 53 52 50 49 50 52 53 54 54 55 56 57 57 58 58 59 60 60 60 60 60 60 60 60 60 60 60 60 60 59 59 58 56 55 53 53 53 53 54 55 57 59 60 62 63 63 62 62 62 62 61 62 64 64 65 65 65 65 66 68 69 69 69 70 70 71 73 75 78 80 82 83 84 85 86 87 88 88 89 90 91 91 91
52 53 54 54 53 51 52 53 54 54 55 55 57 58 59 60 60 61 62 62 61 61 61 61 60 60 60 60 60 60 59 59 58 57 55 54 53 53 54 54 55 57 58 59 61 62 62 62 62 61 61 61 61 63 64 65 65 65 65 66 67 68 69 70 70 71 72 73 75 76 79 81 82 84 85 86 87 87 88 88 89 90 91 91 91
53 55 56 55 55 54 54 54 55 55 55 56 57 59 60 61 62 62 63 62 62 62 62 61 61 60 60 60 60 59 58 57 56 55 54 53 54 54 55 56 57 58 59 59 61 62 62 61 61 61 60 61 62 63 64 65 65 65 66 67 68 69 69 69 70 72 73 75 77 78 80 81 82 84 85 86 87 88 88 88 89 90 90 90 90
55 56 56 56 56 56 56 56 56 57 57 57 58 59 61 62 62 63 63 63 63 62 62 61 61 60 60 59 59 58 57 56 55 54 54 54 55 56 56 57 58 59 59 59 60 61 61 60 60 60 60 61 62 64 64 65 65 66 67 68 70 70 69 69 70 72 74 76 78 79 81 82 83 84 85 86 88 88 88 89 89 89 89 90 89
56 57 57 58 58 58 58 58 58 59 59 59 59 60 61 62 63 64 64 63 63 62 62 61 60 60 59 58 57 56 55 54 54 54 55 56 56 56 56 57 58 58 58 59 59 59 60 60 61 61 61 62 63 64 64 65 65 66 67 69 70 71 70 70 71 73 75 77 79 80 81 82 83 84 85 87 88 88 88 89 89 89 89 89 88
57 58 59 59 59 60 60 60 60 60 60 60 60 61 62 63 64 64 63 62 62 62 61 60 59 59 58 56 55 54 54 54 55 56 57 57 56 56 57 57 57 57 58 59 59 58 59 60 61 61 62 63 64 64 64 65 66 67 68 70 71 71 71 71 72 74 76 78 79 80 81 82 83 84 85 87 87 87 88 88 89 89 88 88 87
59 59 60 60 60 61 61 61 61 62 62 62 61 61 62 63 64 63 62 62 62 61 60 59 58 57 56 54 53 54 55 56 57 57 58 57 56 57 57 56 56 57 58 58 58 58 59 60 61 62 62 63 64 64 65 65 66 68 69 70 71 71 72 72 73 75 78 79 80 81 81 82 83 84 86 86 87 87 87 88 88 88 88 88 86
59 60 61 61 61 61 61 62 62 63 63 63 62 62 62 63 63 62 61 61 61 60 59 58 56 55 53 53 54 56 57 58 58 58 57 56 56 56 55 56 57 58 58 57 57 58 59 60 61 62 63 64 64 65 65 66 67 68 70 71 71 71 72 73 74 76 79 80 81 81 82 82 83 85 86 86 86 86 86 87 87 87 87 86 85
60 60 61 61 61 61 62 62 63 63 63 63 62 61 61 62 62 62 61 61 60 59 58 55 53 53 53 55 57 58 58 58 58 57 57 56 55 54 54 56 57 57 57 57 58 59 60 61 62 63 64 64 64 65 66 67 67 68 69 70 71 72 73 74 74 77 79 81 81 81 82 82 83 85 86 86 86 86 86 87 87 86 86 84 83
61 61 61 61 61 61 61 62 62 62 62 63 63 61 61 62 62 61 61 60 59 56 54 53 52 54 56 58 59 58 58 57 57 57 56 55 53 53 55 57 57 56 57 57 59 60 61 62 63 64 65 65 64 65 66 67 68 69 69 69 70 72 73 74 75 77 79 81 81 81 82 83 84 85 86 85 85 85 86 86 86 86 84 83 81
62 62 62 62 62 62 62 61 61 62 62 63 63 62 62 62 61 60 59 57 55 53 53 53 55 57 59 59 58 58 57 57 57 56 54 52 53 55 57 57 56 56 57 58 60 61 62 63 64 64 65 65 65 66 67 68 69 69 69 69 70 71 73 75 76 77 79 81 81 81 82 82 83 84 84 84 84 84 85 85 85 85 83 81 80
63 62 62 62 62 62 62 62 61 61 62 62 62 61 61 61 60 58 57 55 54 54 55 57 58 59 59 58 58 57 57 57 56 54 52 52 54 56 56 56 56 57 58 59 60 62 63 64 65 65 65 65 65 66 67 68 69 69 70 70 71 71 73 75 77 78 79 80 81 81 81 82 83 83 83 83 83 83 83 84 84 83 81 79 78
63 63 62 62 62 62 62 62 62 61 61 61 61 60 60 59 58 57 56 56 56 57 58 59 60 59 58 57 57 57 57 56 54 52 52 54 55 56 56 56 57 58 59 60 61 63 64 65 65 65 65 66 66 66 67 68 69 70 70 70 71 72 73 74 77 79 79 80 81 81 81 82 83 83 82 82 82 83 83 83 82 81 79 77 76
63 63 62 62 62 62 62 62 62 62 62 62 61 61 60 59 58 58 57 58 58 59 60 60 59 58 57 57 57 57 55 53 51 51 53 54 55 55 56 57 58 58 59 61 63 64 65 66 66 66 66 66 67 67 68 69 69 70 71 71 72 72 73 74 76 78 79 80 80 81 81 81 82 82 82 82 82 82 82 81 81 80 78 76 75
62 62 62 61 61 61 61 61 61 61 61 61 61 60 59 59 58 58 59 59 60 60 59 58 57 56 57 58 57 55 52 51 51 52 53 54 54 55 56 58 58 59 60 62 64 65 66 66 67 66 66 66 67 67 68 69 70 70 71 72 73 73 75 76 77 77 79 79 80 80 80 80 81 81 81 81 81 81 80 80 80 78 76 74 73
61 60 60 59 59 59 59 60 60 59 59 58 58 58 58 58 59 59 60 60 59 58 57 56 57 58 58 57 54 52 50 51 51 52 53 54 55 56 57 58 58 60 62 64 65 66 67 67 67 67 66 67 67 68 69 69 70 71 72 72 73 74 76 78 78 78 79 79 79 79 79 79 79 80 79 80 80 79 79 79 79 77 75 73 71
59 58 58 58 58 58 58 58 58 57 57 57 57 58 58 59 59 60 59 58 57 57 57 57 58 57 55 52 50 49 50 50 51 52 54 55 56 57 58 59 60 61 63 65 66 66 67 67 67 67 67 67 68 68 69 70 70 71 72 73 74 75 77 79 80 80 79 79 78 78 78 78 78 78 78 78 78 78 78 78 77 75 73 71 69
58 57 57 57 57 57 57 57 57 57 56 57 57 58 58 59 59 58 58 57 57 58 58 58 56 53 50 49 48 49 49 50 51 53 55 56 57 58 59 60 61 63 65 65 66 67 67 67 67 67 68 68 69 69 69 70 71 72 73 73 74 76 77 79 80 81 80 79 78 77 77 77 76 77 77 77 77 78 77 77 76 74 71 69 68
59 58 58 58 57 57 57 56 56 56 56 56 57 58 58 58 58 58 58 59 59 58 56 53 50 48 47 47 48 48 49 51 53 55 56 58 58 59 60 62 63 65 65 66 66 67 67 67 67 68 69 69 69 69 70 71 71 72 73 74 75 77 78 79 80 80 79 77 77 77 77 76 75 75 76 77 76 76 76 76 74 72 69 67 66
59 58 57 57 56 56 56 56 56 56 57 58 58 59 59 59 59 59 59 58 56 53 50 48 46 46 46 47 48 49 50 52 54 57 58 59 60 61 62 63 64 66 66 66 67 67 67 67 68 69 69 69 69 70 71 71 72 73 74 75 76 77 78 79 79 79 78 76 76 76 76 76 75 74 75 76 76 74 74 74 73 70 68 66 65
60 58 58 57 57 57 57 57 58 58 59 59 59 59 59 58 58 57 55 52 49 47 46 45 45 45 46 48 49 50 52 54 57 59 60 60 62 63 64 65 66 66 66 66 67 68 68 68 69 69 70 70 70 71 71 72 72 74 75 76 77 78 79 79 78 77 77 75 74 75 76 75 75 74 73 74 75 74 74 73 71 69 66 65 64
59 59 58 58 57 57 57 57 57 57 57 57 57 57 56 55 53 51 49 47 45 44 44 44 45 46 47 49 51 52 55 57 59 61 62 62 64 64 65 65 66 66 66 67 68 69 69 69 70 70 70 70 70 71 72 72 73 75 75 76 77 78 78 78 78 77 76 75 74 75 75 75 75 74 73 72 72 72 73 71 70 67 64 63 62
Wind_Direction
271 273 274 275 275 275 276 277 277 277 276 275 275 274 274 276 278 280 282 283 285 287 290 292 293 295 298 300 302 304 304 305 306 307 307 308 309 310 311 311 312 313 314 315 316 316 317 318 319 320 321 321 321 321 322 322 322 322 323 323 324 324 325 325 326 326 327 327 327 327 327 326 326 325 325 323 322 321 320 319 318 317 316 315 314
272 273 273 274 274 274 275 275 275 274 274 274 273 272 273 274 276 279 281 282 284 287 289 291 293 296 299 300 301 302 303 304 305 306 307 308 308 309 310 311 312 313 314 315 315 316 317 318 319 319 320 320 320 320 320 321 321 321 322 322 323 323 324 324 325 326 326 327 327 327 327 326 326 325 324 323 322 321 320 319 318 317 316 315 313
275 275 275 275 275 275 275 275 274 273 272 272 271 272 273 275 277 279 281 283 286 287 290 292 295 297 299 300 300 302 303 304 305 306 307 308 308 309 309 310 312 313 313 314 315 315 316 317 318 319 318 319 319 319 319 319 320 320 321 321 321 322 323 323 325 326 327 327 327 327 327 326 326 325 324 323 322 321 320 319 318 317 316 315 313
276 277 276 277 276 277 276 275 274 273 272 271 271 273 274 277 280 281 283 284 286 288 291 294 296 298 298 300 301 303 304 305 306 307 307 307 308 309 309 310 312 312 313 314 314 315 316 317 317 318 318 318 318 318 319 319 319 320 320 320 321 321 322 323 325 326 326 327 327 327 327 326 325 324 323 322 322 321 320 319 318 317 316 315 313
277 278 278 277 277 277 277 275 275 274 273 273 273 274 276 278 280 282 284 286 288 290 292 294 296 297 299 301 302 304 305 306 306 306 307 307 308 309 309 311 311 312 312 313 314 314 315 316 317 317 317 317 318 318 318 319 319 319 320 320 320 321 322 323 325 326 326 327 327 327 326 326 325 324 323 322 322 321 320 320 318 317 316 315 314
276 278 278 278 277 277 277 277 276 275 275 275 276 277 278 279 281 282 284 287 289 292 294 296 297 298 300 302 303 304 305 305 305 306 306 307 308 309 310 311 311 312 312 313 313 314 315 316 316 317 317 317 317 317 318 319 319 319 319 320 320 321 322 324 325 326 326 326 326 326 326 325 324 323 323 322 322 321 320 319 318 317 317 315 314
277 277 278 278 277 277 277 278 277 277 277 278 278 279 279 281 282 283 285 287 291 294 296 298 299 300 301 302 303 303 304 304 304 305 306 307 308 309 310 311 311 311 312 312 313 314 315 316 316 317 317 317 317 317 318 319 319 319 319 319 320 321 323 324 325 326 326 326 326 326 325 324 324 323 323 322 322 321 320 320 319 318 317 316 315
277 278 278 278 278 278 278 279 279 279 279 280 281 281 282 283 285 286 288 291 294 297 298 299 300 301 302 302 302 302 302 303 304 305 307 308 309 310 311 311 311 311 311 312 313 314 315 316 316 317 317 317 317 318 318 319 319 319 319 319 321 322 323 324 325 326 326 326 326 325 325 324 323 323 323 323 322 321 320 319 318 318 317 315 314
279 279 279 279 280 279 280 280 280 281 281 283 284 286 287 289 290 291 292 295 297 299 300 300 300 300 300 300 300 301 302 304 305 307 309 309 310 311 311 311 311 311 311 312 313 315 315 316 316 317 317 317 317 318 318 318 318 318 319 320 321 322 323 324 325 326 326 326 326 325 324 324 323 323 323 323 322 321 320 319 318 317 316 315 314
281 280 280 281 281 281 281 281 281 282 283 284 286 289 291 292 293 294 295 296 298 299 299 298 298 298 299 300 301 302 304 306 307 309 310 310 311 311 311 311 311 311 312 313 314 315 315 316 317 317 317 317 317 318 318 318 318 318 319 320 322 323 324 325 326 326 326 326 325 325 324 324 324 324 323 322 321 320 320 319 318 317 316 315 314
281 281 281 282 282 282 282 282 283 284 285 286 288 291 292 293 294 295 296 296 297 297 296 297 298 299 300 301 303 305 306 307 308 309 310 311 311 311 310 311 311 312 312 313 314 314 315 316 317 317 317 317 317 317 317 318 318 319 320 321 322 323 324 325 326 326 326 326 325 324 324 324 324 323 323 322 321 320 320 319 318 317 317 316 316
279 280 281 282 283 283 283 284 284 285 286 287 290 291 292 293 294 295 296 296 296 296 297 298 300 301 302 303 305 306 307 308 309 310 310 310 310 310 310 311 311 312 312 313 314 315 316 316 317 317 317 317 316 317 317 318 319 320 321 322 323 324 325 326 326 327 326 325 325 324 324 324 323 323 323 322 321 320 319 319 318 318 318 318 317
277 278 280 282 282 282 283 284 285 286 287 289 290 291 291 292 294 295 296 297 298 299 299 300 301 302 304 305 306 307 307 308 309 310 310 310 310 310 310 311 311 312 312 313 314 315 316 316 316 316 316 316 316 316 317 318 319 320 321 323 323 324 325 326 326 326 325 325 324 324 324 324 324 323 323 322 321 320 320 320 320 320 320 319 319
276 277 279 280 281 281 282 283 285 287 288 289 290 290 290 291 293 295 296 298 299 300 300 301 302 303 305 306 306 307 307 308 309 309 310 309 309 309 310 311 311 312 313 313 314 315 316 316 316 316 316 316 316 317 317 318 320 321 322 323 324 324 325 326 326 325 325 324 324 324 324 324 324 323 322 321 321 321 321 322 322 321 321 321 320
277 279 279 279 279 279 280 282 284 287 288 290 291 291 292 293 294 295 297 298 300 300 301 301 303 304 305 306 306 306 307 307 308 309 309 309 309 309 310 310 311 312 313 314 314 315 315 315 315 315 315 315 316 317 318 319 320 321 322 323 323 324 325 326 326 325 324 324 324 324 324 323 323 322 322 322 322 323 323 323 323 322 322 322 321
280 280 279 278 277 278 280 282 284 286 288 290 291 292 293 294 295 297 298 300 300 300 301 302 303 304 305 305 305 306 306 307 308 308 308 308 309 309 310 310 311 312 313 314 314 314 314 314 314 314 315 315 316 317 319 320 321 321 322 323 323 324 325 325 325 324 324 324 324 324 323 323 322 322 322 323 324 324 323 323 323 323 323 322 322
279 279 279 278 278 278 279 280 282 285 287 289 290 292 293 295 296 298 299 300 300 300 300 301 302 303 304 304 304 305 306 307 307 307 308 308 308 309 310 311 312 313 314 314 314 314 314 314 314 314 315 316 317 318 319 320 321 321 322 323 324 325 325 325 324 324 324 324 324 323 323 323 323 323 323 324 324 324 324 324 324 324 323 323 322
276 277 278 278 279 279 280 280 282 284 286 288 290 291 293 295 296 298 299 298 298 298 300 301 302 302 303 303 304 304 305 306 306 307 307 307 308 309 310 312 313 314 314 314 314 314 313 314 314 314 315 316 317 318 319 320 321 321 322 323 324 324 324 324 324 324 324 324 323 323 323 323 323 324 325 325 325 325 325 325 325 325 324 324 324
274 276 277 278 279 280 281 282 283 285 287 288 289 291 293 295 296 297 297 297 297 298 299 300 301 302 302 303 304 304 304 305 305 306 307 308 309 310 311 312 313 314 314 314 313 313 313 313 314 314 315 316 318 318 319 320 321 322 323 323 324 324 324 325 325 324 323 323 323 323 323 324 325 325 326 326 326 327 327 326 326 325 326 326 326
272 274 276 277 279 280 281 283 285 286 287 288 289 291 293 294 295 296 296 297 297 298 299 300 301 301 302 303 303 303 304 305 305 306 307 308 310 311 312 313 314 313 313 313 313 312 312 313 313 314 315 316 317 318 319 321 322 322 322 323 323 324 324 325 324 323 323 323 323 323 324 325 326 326 326 327 327 328 327 327 327 327 327 328 328
272 273 275 276 278 279 281 282 285 287 288 289 290 291 293 294 294 295 296 297 297 298 299 300 300 301 301 302 302 303 304 305 305 306 307 308 309 311 312 313 313 313 312 312 311 311 311 312 312 314 315 316 318 319 320 321 321 321 321 323 324 324 324 324 323 323 323 323 324 324 325 326 326 327 327 328 328 328 328 328 328 329 329 329 330
274 274 275 276 277 279 280 282 285 286 288 288 289 290 292 292 293 295 296 296 297 297 298 299 300 300 301 301 302 303 304 305 306 307 308 309 310 311 312 312 312 312 312 311 311 310 311 312 313 314 315 317 318 319 320 321 321 321 322 323 324 323 323 323 323 323 324 324 324 325 326 326 327 327 328 329 328 329 329 329 330 330 331 331 331
277 277 277 277 278 279 281 282 284 285 286 287 288 290 290 290 292 293 294 295 296 296 297 298 299 300 300 301 302 303 304 305 306 307 308 309 310 311 311 311 312 311 311 310 310 310 311 312 313 314 316 317 318 319 320 320 320 321 322 323 323 322 323 323 323 324 324 324 325 326 326 327 327 328 329 329 329 330 330 331 331 331 332 332 333
278 279 279 279 279 280 281 282 283 284 285 286 287 288 289 289 291 292 293 294 295 295 297 298 298 299 300 300 301 302 303 304 305 306 307 308 309 309 310 310 310 309 309 308 308 309 310 311 312 313 315 316 318 319 319 319 320 320 321 321 322 322 322 323 324 324 324 324 325 326 327 327 328 329 329 329 330 331 332 332 332 332 333 334 334
279 279 279 278 279 279 280 281 282 283 284 285 286 287 287 289 290 291 292 293 294 295 296 297 298 298 299 299 300 301 302 303 304 305 306 307 307 308 308 308 308 308 307 307 307 307 308 309 310 312 314 316 317 318 319 319 319 320 320 320 321 321 322 323 323 324 324 325 326 326 327 327 328 329 329 330 331 332 332 332 332 333 334 335 334
277 277 277 277 277 277 278 279 280 281 282 283 284 285 286 288 289 291 291 292 293 294 295 296 297 298 298 299 300 301 302 303 303 304 305 305 306 307 307 307 307 307 306 305 306 306 307 309 310 312 314 316 317 318 318 318 319 319 320 320 321 322 323 323 323 324 324 325 326 326 327 328 328 329 330 331 332 332 333 332 333 334 335 335 335
275 276 276 276 275 275 276 277 278 279 280 282 283 285 286 287 289 290 290 291 292 293 295 295 296 297 297 298 299 300 301 302 302 303 304 304 305 305 306 306 306 305 305 305 305 306 307 309 311 313 314 316 317 317 317 318 319 319 320 321 321 322 323 323 323 324 325 325 326 327 327 328 329 329 330 331 332 332 333 333 334 334 335 335 335
275 276 276 275 275 275 276 276 277 278 280 281 283 284 286 287 288 289 289 290 291 293 294 295 295 296 297 298 299 300 301 301 301 302 303 303 304 304 304 305 305 304 304 305 305 306 308 310 312 313 315 316 317 317 317 318 319 320 320 321 321 322 323 323 324 324 325 325 326 327 328 328 329 330 331 332 332 332 333 333 334 335 336 335 335
275 275 275 276 276 276 276 277 277 278 279 281 282 283 284 285 287 288 289 290 291 292 293 294 295 296 297 298 299 299 300 300 301 301 302 302 303 303 303 304 303 303 304 305 305 307 308 310 312 314 315 316 317 317 318 319 320 320 320 321 322 322 323 323 324 324 325 326 327 328 328 329 329 330 331 332 332 333 333 334 334 335 336 336 335
274 275 275 277 277 277 276 276 277 278 279 280 281 282 283 285 286 287 288 289 290 292 293 294 295 296 297 298 298 298 299 299 300 300 301 301 302 302 303 303 303 303 304 305 306 307 309 311 313 314 315 316 317 318 319 320 320 320 321 321 322 323 323 324 324 325 326 326 327 328 328 329 329 330 331 332 332 333 334 334 335 335 336 336 336
274 275 276 277 277 277 276 276 277 278 278 279 280 282 283 284 285 286 287 289 290 292 293 293 294 295 296 296 297 297 298 298 299 299 300 300 301 302 302 302 302 303 304 305 306 308 310 312 313 315 316 317 318 318 319 320 320 320 321 322 322 322 323 324 325 326 326 327 327 328 328 328 329 331 331 332 333 333 334 334 335 335 336 336 337
274 274 275 276 277 277 276 276 277 278 278 279 280 281 283 284 285 286 287 289 290 291 292 293 294 295 295 295 296 296 297 298 298 298 299 299 300 301 301 302 302 303 304 306 307 309 310 312 314 315 316 317 318 319 319 320 320 321 321 322 322 322 323 325 326 326 326 327 327 328 328 328 330 331 331 332 333 333 334 334 335 335 336 336 338
274 274 275 276 276 276 277 277 277 278 278 279 280 281 282 283 284 285 287 288 290 291 291 292 293 293 293 294 295 295 296 297 297 298 298 299 300 301 301 301 302 303 305 306 308 309 311 313 314 315 316 317 318 319 320 320 320 321 322 322 322 322 324 325 326 326 326 326 327 327 328 328 330 331 332 332 332 333 334 334 335 335 336 337 338
275 275 276 276 276 276 277 277 277 278 278 279 279 280 281 282 283 285 286 288 289 289 290 291 292 292 292 293 293 294 295 296 296 297 298 299 300 300 300 301 302 303 305 307 308 310 311 313 314 315 317 317 318 319 319 320 320 321 322 322 322 323 324 325 326 326 326 326 326 326 328 329 330 331 332 332 333 333 333 334 335 335 336 338 339
277 276 276 276 277 277 277 277 277 277 278 278 279 280 281 282 283 284 286 287 287 288 289 290 291 291 291 292 293 294 294 295 296 297 298 299 299 299 300 301 301 303 305 307 308 310 311 313 314 315 316 317 318 319 319 320 320 321 321 321 322 323 324 325 326 325 325 325 325 326 328 329 330 331 331 332 333 333 333 334 335 335 337 338 339
276 276 276 277 277 277 277 277 277 277 278 278 279 280 281 282 283 284 285 286 287 288 289 289 289 289 290 291 292 293 294 295 296 297 298 298 298 299 300 300 302 304 306 307 309 310 312 313 314 315 316 317 318 319 319 319 320 321 321 321 322 323 324 325 325 325 324 324 325 326 328 329 330 330 331 332 333 333 333 334 335 336 337 338 339
275 275 275 276 276 276 277 277 277 277 278 278 279 280 281 282 283 284 285 286 287 288 288 288 288 288 289 291 292 293 294 296 297 298 298 297 298 299 299 300 302 304 306 308 310 311 312 312 313 315 316 317 318 318 318 319 319 320 321 321 322 323 324 325 325 324 324 324 325 326 327 329 330 330 331 332 333 333 333 334 335 336 337 339 339
274 274 274 275 275 275 275 276 276 277 278 279 279 280 281 282 283 284 285 286 286 286 286 286 286 288 289 291 292 294 295 296 297 297 296 297 298 298 298 300 303 305 307 309 310 311 312 312 313 315 316 317 318 318 318 318 319 320 321 321 322 323 324 324 324 324 323 324 325 327 327 329 329 330 331 332 333 333 333 334 335 336 338 339 340
273 273 274 274 274 274 275 275 276 277 278 278 279 279 280 282 283 284 285 285 285 285 285 285 286 289 291 292 294 295 296 297 296 295 296 297 297 297 299 302 304 306 308 310 311 311 311 312 314 315 316 317 317 317 317 318 318 319 320 321 322 322 322 322 323 323 323 324 325 327 328 328 329 330 331 332 333 333 334 334 335 337 338 339 340
272 272 273 273 274 274 275 275 276 277 278 278 280 281 281 282 283 284 284 284 284 283 284 286 288 290 292 294 295 296 296 296 295 295 296 296 296 297 300 303 305 307 309 310 310 310 311 313 314 315 316 316 316 316 317 318 318 319 320 320 321 321 321 321 322 323 323 324 325 327 327 328 329 330 331 331 332 333 333 335 336 337 338 339 339
273 273 273 274 274 275 275 276 276 277 278 279 281 282 282 283 283 283 283 282 282 283 285 288 290 292 294 295 296 296 295 295 294 295 295 295 297 299 302 304 306 308 310 310 310 310 311 313 314 315 316 315 315 316 317 318 318 318 319 319 320 320 320 321 321 323 324 324 325 327 327 327 328 330 330 331 332 332 333 335 336 336 338 339 339
274 274 274 275 275 275 276 277 278 278 279 280 281 282 282 282 282 282 282 282 283 285 288 290 292 293 294 295 295 295 294 294 294 294 295 296 299 301 303 305 307 309 309 309 310 310 311 313 314 315 315 314 315 316 317 317 317 318 318 318 318 319 319 320 321 322 324 324 325 326 327 327 328 329 330 331 331 332 334 335 336 336 337 339 339
275 275 275 276 276 277 277 278 279 279 280 280 281 281 281 281 282 282 283 284 286 288 290 291 293 294 295 295 294 293 293 293 294 294 296 298 300 302 304 306 307 308 309 309 309 310 311 312 313 314 313 313 314 316 316 316 317 317 317 317 317 318 318 319 320 322 324 324 324 325 326 327 328 329 330 331 331 333 334 335 335 336 337 339 340
276 276 277 277 277 277 278 278 279 280 280 281 281 281 282 282 283 283 285 286 288 290 291 293 294 294 294 293 293 292 292 293 294 296 297 299 301 303 305 306 307 308 309 309 309 310 311 312 312 312 312 313 314 315 316 315 316 316 316 316 317 317 318 319 320 322 324 324 324 325 326 327 327 329 330 330 331 333 334 335 335 336 337 339 340
277 277 277 277 278 278 279 279 280 280 281 281 281 281 282 283 284 286 287 289 290 292 293 294 294 294 293 292 292 292 293 294 295 297 298 300 302 304 305 306 308 308 308 308 309 310 311 311 311 311 312 313 314 314 314 314 315 315 315 315 316 317 318 319 321 322 323 324 324 324 325 327 327 328 330 330 331 333 334 335 335 336 337 339 339
277 277 277 278 278 278 279 279 280 280 280 281 281 282 283 285 286 288 290 291 292 293 293 293 292 292 291 291 292 293 294 295 296 298 300 302 303 304 305 307 307 307 307 308 309 310 310 309 310 311 312 313 313 314 314 314 314 314 314 314 315 317 318 319 321 322 323 323 323 324 325 327 328 328 329 330 331 332 334 335 335 335 337 338 338
276 277 277 277 277 277 277 278 279 280 281 282 283 285 286 288 289 290 291 292 292 292 292 291 290 290 291 292 293 293 294 296 297 299 301 302 303 305 306 306 306 306 307 308 308 308 308 308 309 311 312 312 313 313 313 313 313 313 313 314 316 317 318 320 320 321 322 323 323 324 325 327 328 328 328 330 331 332 334 335 335 335 337 338 338
276 276 276 276 276 276 277 278 280 281 283 284 286 287 288 289 290 291 291 291 291 290 290 289 290 290 291 292 292 293 295 297 299 300 301 302 303 305 305 305 306 306 307 307 307 306 307 308 310 311 311 311 312 312 312 312 312 312 313 314 316 317 318 319 320 321 322 323 323 324 325 326 328 328 328 329 331 333 334 334 334 335 336 337 337
276 275 276 276 277 278 279 280 282 283 285 286 287 287 288 289 289 289 289 288 288 288 288 289 290 290 291 292 293 295 298 299 300 300 301 302 304 304 304 305 305 305 306 306 305 305 307 308 310 310 310 311 311 311 311 311 312 312 313 314 316 317 318 318 319 320 321 322 322 323 324 325 327 328 328 329 331 333 334 334 334 335 336 336 336
276 276 276 277 278 279 281 282 283 284 285 285 286 287 287 287 287 287 286 286 286 287 288 289 289 290 292 294 296 298 299 299 299 300 301 303 303 304 304 304 304 304 304 305 305 306 307 308 309 309 309 310 310 310 310 311 311 312 313 314 315 316 317 318 318 319 320 321 322 322 323 324 326 327 329 330 331 333 334 334 333 334 335 335 335
279 278 278 278 279 281 282 283 284 285 285 285 285 285 285 285 285 285 285 285 286 287 288 289 291 293 295 297 299 299 299 299 299 300 301 302 303 303 303 303 302 303 304 306 306 307 307 308 308 308 308 309 309 309 310 311 311 311 312 313 314 315 316 317 317 318 319 321 322 322 323 324 325 327 328 330 331 332 333 333 333 333 334 334 334
Height
5897 5896 5896 5896 5896 5895 5895 5895 5894 5894 5894 5893 5893 5892 5892 5891 5891 5890 5890 5889 5889 5888 5887 5886 5885 5884 5882 5881 5880 5879 5877 5876 5875 5873 5872 5870 5868 5866 5864 5862 5860 5858 5856 5854 5852 5850 5848 5845 5843 5841 5839 5836 5834 5831 5829 5826 5824 5821 5818 5815 5812 5809 5806 5803 5800 5797 5794 5791 5788 5784 5781 5778 5774 5770 5767 5763 5759 5756 5753 5750 5747 5744 5741 5738 5735
5896 5895 5895 5895 5895 5894 5894 5894 5894 5893 5893 5893 5892 5892 5891 5890 5890 5889 5888 5888 5887 5886 5886 5884 5883 5882 5881 5879 5878 5877 5875 5874 5873 5871 5869 5868 5866 5864 5862 5860 5858 5856 5854 5851 5849 5847 5845 5843 5840 5838 5836 5833 5831 5828 5826 5823 5820 5818 5815 5812 5809 5806 5803 5800 5796 5793 5790 5787 5783 5780 5776 5772 5769 5765 5761 5757 5754 5751 5747 5745 5742 5739 5736 5733 5730
5895 5895 5894 5894 5894 5894 5893 5893 5893 5892 5892 5892 5891 5890 5890 5889 5889 5888 5887 5886 5886 5885 5884 5883 5881 5880 5879 5877 5876 5875 5873 5872 5870 5869 5867 5865 5863 5862 5860 5858 5855 5853 5851 5849 5846 5844 5842 5840 5837 5835 5833 5830 5828 5825 5822 5820 5817 5814 5811 5808 5805 5802 5799 5796 5792 5789 5785 5782 5778 5775 5771 5767 5763 5759 5755 5752 5748 5745 5742 5739 5736 5733 5730 5727 5723
5894 5894 5894 5893 5893 5893 5892 5892 5892 5891 5891 5890 5890 5889 5889 5888 5887 5887 5886 5885 5884 5883 5882 5881 5879 5878 5877 5875 5874 5872 5871 5869 5868 5866 5865 5863 5861 5859 5857 5855 5853 5851 5848 5846 5844 5841 5839 5837 5835 5832 5830 5827 5824 5822 5819 5816 5813 5810 5807 5804 5801 5798 5795 5792 5788 5784 5781 5777 5773 5770 5766 5762 5758 5754 5750 5746 5743 5740 5737 5734 5731 5727 5724 5720 5717
5893 5893 5892 5892 5892 5891 5891 5891 5890 5890 5890 5889 5889 5888 5888 5887 5886 5885 5884 5883 5882 5881 5880 5879 5878 5876 5874 5873 5872 5870 5869 5867 5866 5864 5863 5861 5859 5857 5855 5853 5851 5848 5846 5843 5841 5838 5836 5834 5832 5829 5826 5824 5821 5818 5815 5812 5809 5806 5803 5800 5797 5794 5790 5787 5783 5779 5776 5772 5768 5764 5760 5756 5752 5748 5745 5741 5738 5735 5732 5728 5725 5721 5718 5714 5711
5892 5891 5891 5891 5890 5890 5890 5890 5889 5889 5888 5888 5887 5887 5886 5885 5884 5883 5882 5881 5880 5879 5879 5877 5876 5874 5873 5871 5870 5868 5867 5865 5863 5862 5860 5858 5856 5855 5853 5850 5848 5846 5843 5841 5838 5835 5833 5831 5828 5826 5823 5820 5817 5814 5811 5808 5805 5802 5799 5796 5792 5789 5785 5782 5778 5774 5771 5767 5763 5759 5755 5751 5747 5743 5739 5736 5733 5729 5726 5722 5718 5715 5712 5708 5705
5890 5890 5890 5889 5889 5889 5888 5888 5888 5887 5887 5886 5886 5885 5884 5884 5883 5882 5881 5880 5879 5878 5876 5875 5873 5872 5871 5869 5867 5866 5864 5862 5861 5859 5857 5855 5853 5851 5850 5847 5845 5843 5840 5838 5835 5832 5830 5827 5825 5822 5819 5816 5813 5810 5807 5804 5801 5798 5794 5791 5788 5784 5781 5777 5773 5770 5766 5762 5758 5754 5749 5745 5741 5737 5734 5731 5727 5723 5720 5716 5712 5709 5706 5702 5699
5889 5889 5889 5888 5888 5887 5887 5886 5886 5885 5885 5884 5884 5883 5883 5882 5881 5880 5879 5878 5877 5876 5874 5872 5871 5869 5868 5867 5865 5863 5862 5860 5858 5856 5854 5852 5850 5848 5846 5844 5842 5839 5837 5834 5832 5829 5826 5823 5821 5818 5815 5812 5809 5805 5802 5800 5796 5793 5790 5786 5783 5779 5776 5772 5769 5765 5761 5757 5752 5748 5744 5739 5736 5732 5728 5725 5721 5717 5714 5710 5707 5703 5700 5697 5694
5888 5887 5887 5887 5886 5886 5885 5885 5884 5884 5883 5882 5882 5881 5880 5880 5879 5878 5877 5875 5874 5873 5871 5870 5868 5867 5865 5864 5862 5860 5859 5857 5855 5853 5851 5849 5847 5845 5842 5840 5838 5836 5833 5830 5828 5825 5822 5820 5817 5814 5810 5807 5804 5801 5798 5795 5792 5789 5785 5781 5778 5775 5771 5767 5763 5759 5755 5751 5746 5742 5738 5734 5730 5726 5722 5719 5715 5711 5708 5704 5701 5698 5695 5691 5688
5886 5886 5885 5885 5885 5884 5884 5883 5882 5882 5881 5880 5880 5879 5878 5877 5877 5875 5874 5873 5872 5870 5869 5867 5866 5864 5863 5861 5859 5858 5856 5854 5852 5850 5848 5846 5844 5841 5839 5837 5834 5831 5829 5826 5823 5821 5818 5815 5812 5809 5806 5803 5800 5797 5793 5790 5787 5784 5780 5777 5773 5769 5766 5762 5758 5753 5749 5745 5740 5736 5732 5728 5724 5720 5716 5713 5709 5706 5702 5699 5695 5692 5689 5685 5682
5884 5884 5884 5883 5883 5882 5882 5881 5881 5880 5879 5878 5878 5877 5876 5875 5874 5873 5872 5870 5869 5868 5866 5864 5863 5861 5860 5858 5856 5854 5852 5851 5849 5847 5844 5842 5840 5838 5836 5833 5830 5827 5824 5822 5819 5817 5814 5811 5808 5805 5802 5799 5795 5792 5789 5786 5782 5779 5775 5772 5768 5764 5760 5756 5752 5747 5743 5738 5734 5730 5726 5722 5718 5714 5711 5707 5703 5700 5696 5693 5689 5686 5682 5679 5675
5882 5882 5882 5881 5881 5880 5880 5879 5878 5878 5877 5876 5875 5874 5873 5872 5871 5870 5869 5867 5866 5864 5862 5861 5859 5858 5856 5854 5852 5851 5849 5847 5845 5843 5841 5839 5837 5834 5832 5829 5826 5823 5820 5817 5814 5812 5809 5806 5803 5800 5798 5795 5791 5788 5784 5781 5777 5774 5770 5767 5763 5759 5754 5750 5746 5741 5736 5732 5728 5724 5720 5717 5713 5709 5705 5701 5698 5694 5691 5687 5683 5679 5675 5672 5668
5880 5879 5879 5879 5878 5878 5877 5877 5876 5875 5874 5874 5873 5872 5871 5869 5868 5867 5865 5864 5862 5860 5859 5857 5855 5854 5852 5850 5849 5847 5845 5844 5842 5840 5838 5835 5833 5830 5828 5825 5822 5819 5816 5813 5810 5807 5804 5801 5798 5796 5793 5790 5787 5784 5780 5776 5772 5769 5765 5761 5757 5753 5749 5745 5740 5735 5731 5726 5723 5719 5715 5711 5707 5703 5699 5696 5692 5689 5685 5681 5677 5673 5668 5664 5660
5877 5877 5877 5876 5875 5875 5874 5874 5873 5872 5872 5871 5870 5869 5868 5867 5865 5863 5862 5860 5858 5856 5855 5853 5852 5850 5849 5847 5845 5843 5841 5840 5838 5836 5834 5831 5829 5826 5824 5821 5818 5815 5811 5808 5805 5802 5799 5797 5794 5791 5788 5785 5782 5779 5775 5772 5768 5764 5760 5756 5752 5748 5744 5739 5735 5730 5725 5721 5717 5713 5709 5705 5701 5697 5694 5690 5687 5683 5678 5674 5670 5665 5661 5657 5652
5874 5874 5874 5873 5873 5872 5871 5870 5870 5869 5868 5868 5867 5866 5865 5863 5862 5860 5859 5857 5855 5853 5851 5850 5848 5847 5845 5843 5841 5840 5838 5836 5834 5832 5830 5827 5824 5822 5819 5817 5813 5810 5807 5804 5801 5798 5795 5792 5789 5786 5783 5780 5777 5774 5770 5767 5763 5759 5755 5751 5747 5743 5739 5734 5729 5725 5720 5716 5712 5708 5704 5700 5696 5692 5688 5685 5681 5676 5672 5667 5663 5658 5654 5649 5644
5872 5872 5871 5871 5870 5869 5868 5867 5866 5866 5865 5864 5863 5862 5861 5860 5858 5857 5856 5854 5852 5849 5848 5846 5845 5843 5841 5840 5838 5836 5834 5832 5830 5828 5826 5823 5820 5817 5815 5812 5809 5805 5802 5799 5796 5793 5790 5788 5785 5782 5779 5775 5772 5769 5765 5761 5758 5754 5750 5746 5742 5738 5733 5728 5724 5719 5715 5711 5707 5703 5699 5695 5691 5687 5683 5679 5674 5670 5665 5661 5656 5651 5646 5641 5636
5869 5868 5868 5867 5867 5866 5865 5864 5863 5862 5861 5860 5860 5859 5858 5857 5855 5854 5852 5851 5849 5846 5844 5843 5841 5839 5838 5836 5834 5832 5830 5828 5825 5823 5821 5819 5816 5813 5810 5807 5804 5801 5797 5794 5791 5788 5785 5783 5780 5777 5774 5770 5767 5764 5760 5756 5753 5749 5745 5741 5736 5732 5728 5723 5719 5714 5710 5706 5702 5697 5693 5689 5685 5681 5677 5673 5668 5663 5659 5654 5649 5644 5638 5632 5626
5866 5865 5865 5864 5863 5863 5862 5861 5860 5859 5858 5857 5856 5855 5855 5854 5852 5851 5849 5848 5846 5844 5841 5839 5838 5836 5834 5832 5830 5829 5827 5824 5821 5818 5816 5814 5812 5809 5806 5802 5799 5796 5792 5789 5786 5783 5780 5778 5775 5772 5769 5765 5761 5758 5755 5751 5747 5743 5739 5734 5730 5727 5723 5718 5713 5709 5705 5701 5696 5692 5688 5684 5680 5675 5671 5666 5662 5656 5651 5646 5641 5636 5630 5623 5617
5863 5862 5862 5861 5860 5859 5858 5857 5856 5856 5855 5854 5853 5852 5851 5850 5849 5848 5846 5844 5842 5840 5838 5836 5834 5832 5829 5827 5825 5824 5822 5820 5818 5815 5811 5809 5806 5804 5801 5798 5795 5791 5788 5784 5780 5777 5774 5772 5769 5767 5763 5760 5756 5753 5749 5745 5741 5737 5732 5728 5724 5721 5717 5712 5708 5704 5700 5695 5691 5686 5682 5678 5673 5669 5664 5660 5655 5649 5644 5638 5633 5627 5621 5614 5607
5860 5859 5859 5858 5857 5855 5854 5853 5853 5852 5852 5850 5850 5849 5848 5847 5846 5844 5842 5840 5838 5837 5834 5832 5830 5828 5825 5823 5821 5819 5817 5815 5813 5811 5808 5805 5802 5799 5796 5793 5790 5786 5783 5780 5776 5773 5770 5767 5764 5762 5759 5755 5751 5747 5743 5739 5734 5730 5726 5723 5719 5715 5711 5707 5703 5698 5694 5690 5685 5680 5676 5671 5667 5662 5657 5652 5647 5642 5636 5630 5625 5618 5612 5604 5597
5857 5856 5856 5855 5854 5852 5851 5850 5849 5849 5848 5847 5846 5845 5845 5843 5842 5840 5839 5836 5834 5832 5831 5828 5826 5823 5821 5819 5816 5814 5812 5810 5808 5806 5804 5801 5798 5795 5792 5789 5785 5781 5778 5775 5772 5769 5766 5763 5760 5757 5754 5750 5746 5741 5737 5733 5728 5724 5721 5717 5713 5709 5705 5701 5697 5693 5688 5683 5679 5674 5669 5665 5661 5656 5651 5646 5640 5635 5628 5622 5615 5609 5602 5595 5587
5854 5853 5853 5852 5851 5849 5848 5847 5846 5846 5845 5843 5842 5841 5841 5839 5838 5836 5834 5832 5830 5828 5826 5824 5822 5820 5817 5815 5812 5809 5807 5805 5802 5800 5798 5796 5793 5790 5787 5785 5781 5777 5773 5769 5766 5764 5761 5758 5754 5751 5748 5744 5740 5736 5732 5728 5723 5718 5715 5711 5707 5703 5700 5695 5691 5686 5682 5677 5672 5668 5664 5659 5655 5650 5644 5639 5633 5627 5620 5613 5606 5600 5593 5585 5576
5851 5850 5849 5849 5848 5846 5844 5844 5843 5842 5841 5839 5838 5837 5836 5835 5834 5832 5830 5828 5826 5823 5822 5820 5818 5815 5813 5810 5808 5805 5803 5800 5798 5795 5793 5790 5788 5785 5782 5779 5777 5773 5769 5765 5761 5758 5756 5753 5749 5745 5741 5738 5735 5731 5727 5722 5717 5713 5709 5706 5702 5698 5694 5690 5685 5680 5675 5671 5666 5662 5657 5653 5648 5643 5638 5632 5626 5619 5613 5605 5598 5591 5585 5576 5567
5848 5847 5846 5845 5844 5843 5841 5840 5839 5838 5837 5835 5834 5833 5831 5830 5829 5827 5825 5823 5821 5819 5817 5815 5813 5811 5809 5806 5804 5801 5799 5796 5794 5791 5789 5786 5784 5781 5778 5775 5773 5770 5766 5762 5758 5755 5752 5749 5746 5741 5738 5734 5731 5727 5722 5717 5713 5708 5704 5700 5697 5693 5688 5684 5679 5675 5670 5666 5661 5656 5651 5647 5642 5636 5630 5625 5618 5612 5605 5598 5590 5583 5576 5567 5558
5844 5844 5842 5841 5840 5839 5837 5836 5835 5834 5832 5830 5829 5828 5827 5825 5824 5823 5820 5818 5817 5814 5813 5811 5808 5806 5804 5801 5799 5797 5795 5792 5790 5787 5785 5782 5780 5777 5774 5771 5769 5766 5763 5760 5756 5752 5749 5746 5743 5738 5734 5730 5726 5722 5717 5712 5708 5704 5700 5696 5692 5687 5683 5679 5675 5670 5666 5661 5656 5651 5646 5641 5635 5629 5623 5617 5611 5604 5598 5591 5583 5575 5568 5560 5550
5840 5839 5837 5837 5836 5834 5833 5831 5830 5829 5827 5826 5825 5823 5822 5821 5819 5818 5816 5814 5812 5809 5808 5806 5804 5801 5799 5797 5794 5792 5790 5788 5785 5783 5780 5778 5775 5773 5770 5767 5764 5761 5758 5755 5752 5748 5744 5741 5738 5734 5729 5726 5721 5717 5712 5708 5703 5699 5695 5691 5686 5682 5678 5674 5670 5665 5660 5655 5650 5645 5640 5634 5628 5623 5616 5610 5603 5596 5590 5583 5575 5567 5560 5552 5543
5835 5833 5832 5832 5831 5830 5828 5827 5825 5824 5823 5821 5820 5818 5817 5816 5815 5813 5811 5809 5807 5805 5803 5801 5799 5796 5794 5792 5789 5787 5785 5783 5780 5778 5776 5773 5771 5768 5765 5762 5759 5757 5753 5750 5746 5742 5738 5735 5732 5728 5724 5720 5716 5712 5707 5702 5698 5693 5689 5685 5680 5676 5672 5668 5664 5660 5654 5649 5644 5639 5633 5627 5621 5616 5609 5603 5596 5589 5582 5575 5567 5560 5552 5543 5535
5829 5827 5826 5826 5826 5825 5823 5822 5820 5819 5817 5816 5815 5813 5812 5811 5810 5808 5805 5803 5802 5800 5798 5796 5793 5791 5788 5786 5784 5782 5780 5777 5775 5773 5770 5768 5766 5763 5761 5758 5755 5752 5748 5744 5740 5737 5733 5729 5726 5722 5718 5714 5710 5706 5701 5696 5692 5687 5682 5679 5675 5670 5666 5662 5657 5653 5648 5643 5638 5632 5626 5620 5614 5609 5603 5596 5589 5582 5575 5567 5559 5552 5544 5536 5526
5823 5821 5819 5819 5820 5820 5818 5816 5815 5813 5812 5811 5809 5808 5806 5805 5804 5802 5799 5797 5796 5794 5792 5790 5787 5785 5783 5781 5779 5776 5774 5772 5770 5767 5765 5763 5760 5758 5755 5753 5750 5747 5743 5739 5735 5731 5727 5723 5720 5717 5712 5709 5704 5699 5695 5691 5686 5682 5677 5673 5669 5664 5659 5655 5651 5647 5642 5636 5632 5626 5620 5613 5608 5602 5596 5589 5582 5575 5567 5560 5552 5544 5536 5528 5518
5817 5816 5814 5814 5815 5814 5813 5811 5809 5808 5807 5806 5804 5802 5801 5799 5798 5796 5793 5791 5790 5788 5786 5784 5782 5780 5777 5775 5773 5771 5769 5766 5764 5762 5759 5757 5755 5752 5750 5747 5745 5742 5738 5734 5729 5726 5722 5717 5714 5711 5706 5702 5698 5693 5689 5685 5680 5676 5672 5667 5663 5659 5653 5649 5644 5640 5635 5630 5625 5621 5614 5608 5602 5596 5590 5583 5576 5569 5561 5553 5545 5537 5530 5522 5512
5812 5810 5809 5808 5808 5808 5807 5805 5804 5803 5802 5800 5798 5796 5795 5793 5792 5790 5787 5786 5784 5782 5780 5778 5776 5774 5772 5770 5767 5765 5763 5761 5759 5756 5754 5752 5749 5747 5744 5742 5739 5736 5733 5729 5723 5719 5716 5712 5707 5705 5701 5696 5693 5688 5683 5679 5675 5670 5666 5661 5657 5653 5648 5643 5638 5633 5628 5623 5619 5615 5609 5603 5596 5590 5582 5576 5569 5562 5555 5547 5540 5532 5523 5515 5506
5806 5804 5803 5803 5802 5801 5800 5799 5798 5797 5796 5794 5793 5791 5788 5786 5785 5783 5781 5780 5778 5776 5774 5772 5770 5768 5766 5764 5761 5759 5757 5755 5753 5751 5748 5746 5744 5741 5738 5735 5733 5730 5727 5724 5719 5713 5710 5707 5702 5699 5695 5691 5687 5683 5678 5673 5669 5664 5660 5655 5651 5648 5644 5638 5632 5626 5622 5616 5612 5609 5604 5597 5591 5584 5576 5569 5562 5555 5549 5542 5534 5526 5518 5509 5499
5800 5799 5797 5797 5796 5795 5794 5793 5792 5791 5790 5788 5787 5785 5783 5780 5778 5776 5775 5774 5772 5770 5768 5766 5764 5762 5760 5758 5756 5754 5752 5750 5747 5745 5743 5741 5738 5735 5732 5729 5726 5724 5721 5718 5714 5708 5703 5700 5697 5693 5690 5686 5681 5677 5673 5668 5663 5658 5654 5649 5644 5641 5639 5634 5628 5622 5617 5611 5606 5602 5597 5590 5584 5578 5571 5564 5556 5548 5542 5535 5527 5520 5511 5502 5492
5794 5793 5792 5791 5790 5789 5788 5787 5786 5784 5783 5782 5780 5779 5776 5774 5772 5770 5769 5768 5766 5764 5762 5760 5758 5756 5754 5752 5750 5748 5746 5744 5742 5740 5737 5735 5732 5729 5726 5724 5720 5718 5715 5712 5708 5704 5698 5694 5691 5688 5684 5681 5676 5672 5667 5663 5658 5653 5648 5644 5639 5635 5632 5629 5623 5617 5612 5608 5602 5597 5591 5584 5577 5571 5565 5558 5551 5543 5535 5528 5520 5513 5505 5495 5486
5788 5787 5785 5784 5783 5782 5782 5781 5780 5778 5777 5775 5774 5772 5769 5767 5766 5764 5763 5762 5759 5758 5756 5754 5752 5750 5748 5746 5744 5742 5741 5738 5736 5734 5731 5728 5726 5723 5720 5718 5715 5712 5710 5706 5703 5699 5694 5689 5686 5682 5679 5675 5671 5667 5662 5658 5653 5648 5644 5639 5634 5629 5625 5622 5617 5611 5606 5602 5597 5592 5586 5579 5571 5564 5558 5551 5544 5537 5529 5521 5513 5505 5498 5489 5480
5781 5780 5779 5777 5777 5776 5775 5775 5773 5771 5770 5769 5768 5766 5764 5761 5759 5758 5757 5755 5753 5752 5750 5748 5746 5744 5742 5740 5739 5737 5735 5733 5730 5728 5725 5722 5719 5717 5714 5711 5709 5706 5704 5700 5697 5693 5689 5685 5680 5677 5674 5670 5666 5662 5657 5652 5648 5644 5638 5634 5630 5624 5619 5616 5612 5606 5599 5595 5590 5584 5579 5573 5565 5559 5553 5546 5539 5532 5523 5515 5507 5499 5491 5482 5473
5774 5773 5772 5771 5770 5769 5768 5767 5766 5764 5763 5762 5761 5760 5757 5755 5753 5752 5751 5749 5747 5746 5744 5742 5740 5738 5737 5735 5733 5731 5729 5727 5724 5721 5719 5716 5713 5711 5708 5705 5703 5700 5697 5694 5691 5687 5684 5680 5675 5671 5668 5665 5660 5656 5652 5648 5644 5639 5633 5628 5623 5619 5614 5610 5606 5600 5593 5589 5585 5578 5572 5566 5559 5552 5547 5541 5534 5527 5519 5511 5503 5495 5486 5477 5468
5767 5766 5765 5764 5763 5763 5762 5760 5759 5758 5756 5755 5755 5754 5751 5749 5747 5746 5744 5743 5741 5739 5738 5736 5734 5733 5731 5729 5727 5725 5723 5720 5718 5715 5712 5710 5707 5705 5702 5699 5697 5694 5691 5688 5684 5681 5677 5674 5670 5666 5662 5659 5655 5650 5646 5642 5639 5636 5630 5623 5617 5612 5608 5604 5601 5595 5587 5581 5579 5573 5565 5560 5554 5546 5539 5533 5526 5519 5512 5504 5496 5488 5480 5472 5464
5760 5759 5758 5757 5756 5756 5755 5753 5752 5751 5750 5748 5747 5747 5745 5743 5741 5739 5738 5736 5735 5733 5732 5730 5729 5727 5725 5723 5721 5719 5716 5714 5711 5709 5706 5704 5701 5699 5696 5693 5691 5688 5685 5682 5678 5675 5671 5668 5664 5661 5657 5653 5650 5645 5641 5637 5633 5630 5627 5622 5615 5608 5603 5599 5597 5592 5582 5574 5571 5567 5559 5552 5547 5540 5532 5526 5519 5512 5504 5496 5488 5480 5473 5466 5458
5753 5752 5751 5750 5749 5749 5748 5747 5746 5745 5743 5741 5740 5739 5738 5736 5734 5733 5731 5730 5729 5727 5726 5725 5723 5721 5719 5717 5715 5712 5710 5707 5705 5702 5700 5698 5695 5692 5690 5688 5685 5682 5679 5675 5672 5668 5665 5662 5658 5655 5651 5647 5644 5640 5636 5632 5627 5623 5620 5616 5612 5607 5600 5594 5591 5588 5580 5570 5565 5562 5555 5546 5541 5536 5528 5521 5515 5507 5500 5492 5483 5475 5468 5460 5452
5747 5746 5745 5744 5743 5742 5740 5740 5739 5738 5736 5735 5734 5732 5731 5729 5728 5727 5725 5724 5723 5721 5720 5719 5717 5715 5713 5710 5708 5706 5703 5701 5698 5696 5694 5692 5689 5686 5683 5681 5678 5676 5672 5669 5665 5662 5658 5655 5652 5649 5645 5641 5638 5635 5630 5626 5622 5618 5614 5610 5606 5602 5597 5590 5584 5581 5576 5566 5558 5555 5550 5542 5536 5532 5525 5517 5511 5503 5496 5488 5480 5473 5466 5458 5450
5740 5739 5738 5737 5736 5735 5733 5732 5732 5731 5729 5728 5727 5726 5724 5723 5722 5721 5719 5718 5717 5715 5714 5712 5710 5708 5706 5703 5701 5699 5696 5694 5692 5690 5688 5685 5683 5680 5677 5675 5672 5669 5666 5662 5659 5655 5652 5649 5646 5643 5639 5635 5632 5629 5625 5620 5616 5612 5608 5605 5601 5597 5593 5588 5581 5575 5570 5563 5553 5548 5543 5537 5530 5525 5520 5512 5506 5499 5491 5483 5476 5469 5463 5455 5447
5733 5732 5731 5730 5729 5727 5726 5725 5724 5723 5722 5721 5720 5719 5717 5716 5715 5714 5713 5711 5710 5709 5707 5705 5703 5701 5699 5696 5694 5692 5690 5688 5685 5683 5681 5679 5676 5674 5671 5669 5666 5663 5660 5656 5652 5649 5645 5642 5639 5636 5633 5629 5625 5622 5618 5614 5610 5605 5602 5598 5595 5591 5587 5584 5580 5573 5566 5559 5551 5544 5538 5532 5524 5518 5513 5506 5499 5493 5485 5478 5471 5464 5457 5451 5443
5726 5725 5724 5723 5722 5720 5719 5718 5717 5716 5714 5713 5713 5712 5711 5709 5708 5707 5706 5705 5703 5702 5700 5698 5696 5694 5692 5690 5688 5685 5683 5681 5679 5677 5675 5672 5670 5667 5665 5662 5660 5656 5653 5649 5646 5642 5639 5635 5632 5630 5627 5623 5619 5616 5612 5608 5603 5599 5595 5592 5588 5584 5580 5576 5573 5568 5562 5555 5548 5540 5534 5527 5519 5512 5507 5500 5493 5487 5480 5473 5466 5459 5452 5447 5440
5718 5718 5717 5716 5715 5713 5712 5711 5710 5709 5708 5706 5706 5705 5704 5703 5701 5700 5699 5697 5696 5694 5693 5691 5689 5687 5685 5683 5681 5679 5677 5675 5673 5670 5668 5665 5663 5661 5658 5655 5653 5650 5646 5643 5639 5635 5632 5629 5625 5623 5620 5616 5612 5609 5605 5601 5597 5593 5589 5585 5581 5577 5571 5566 5563 5560 5556 5549 5543 5536 5530 5523 5515 5507 5501 5494 5486 5481 5476 5468 5462 5456 5448 5442 5437
5711 5711 5710 5709 5708 5707 5706 5704 5703 5702 5701 5700 5699 5698 5697 5696 5694 5693 5691 5690 5689 5687 5686 5684 5682 5680 5678 5676 5674 5672 5670 5668 5666 5664 5661 5659 5656 5654 5651 5648 5645 5642 5639 5636 5632 5629 5626 5622 5619 5615 5612 5609 5606 5602 5598 5595 5591 5587 5583 5579 5575 5570 5564 5558 5554 5551 5548 5543 5537 5531 5525 5518 5510 5501 5495 5490 5482 5475 5470 5465 5458 5452 5445 5438 5433
5705 5704 5703 5703 5701 5700 5699 5698 5697 5696 5694 5693 5692 5691 5690 5689 5687 5686 5684 5683 5682 5680 5678 5676 5675 5673 5671 5670 5668 5666 5664 5662 5660 5657 5654 5652 5649 5647 5644 5641 5638 5634 5631 5629 5626 5622 5619 5616 5612 5608 5605 5601 5598 5595 5592 5588 5584 5580 5576 5572 5568 5563 5558 5552 5545 5542 5539 5534 5528 5523 5518 5512 5506 5496 5488 5484 5478 5470 5464 5460 5454 5447 5441 5435 5430
5698 5697 5696 5695 5694 5693 5692 5691 5690 5689 5688 5686 5685 5684 5682 5681 5680 5678 5677 5676 5674 5673 5671 5669 5668 5666 5665 5663 5662 5660 5658 5656 5653 5650 5647 5645 5642 5639 5636 5633 5630 5627 5624 5621 5618 5615 5612 5608 5604 5601 5598 5595 5591 5588 5584 5581 5577 5573 5569 5564 5560 5555 5550 5546 5540 5534 5531 5527 5520 5515 5511 5505 5500 5493 5483 5477 5474 5467 5459 5454 5449 5444 5437 5432 5427
5691 5690 5689 5688 5687 5686 5686 5685 5684 5683 5681 5679 5678 5677 5675 5674 5673 5671 5670 5668 5667 5666 5664 5663 5661 5660 5658 5657 5655 5653 5651 5648 5646 5643 5640 5638 5635 5632 5629 5626 5623 5620 5618 5615 5611 5608 5605 5601 5597 5594 5591 5587 5584 5580 5577 5574 5570 5566 5562 5557 5553 5548 5543 5539 5534 5529 5525 5521 5514 5508 5503 5498 5494 5489 5480 5470 5466 5463 5457 5450 5444 5439 5434 5428 5423
5684 5683 5683 5682 5681 5680 5679 5678 5676 5675 5673 5672 5670 5669 5667 5666 5665 5664 5662 5661 5660 5659 5658 5656 5655 5654 5652 5650 5648 5646 5644 5641 5638 5635 5633 5631 5628 5625 5622 5619 5616 5613 5611 5608 5604 5600 5597 5594 5591 5587 5584 5581 5577 5573 5570 5566 5562 5558 5554 5550 5546 5541 5536 5532 5528 5523 5518 5515 5509 5502 5497 5492 5486 5482 5477 5467 5458 5454 5451 5447 5440 5435 5430 5425 5420
5678 5677 5676 5675 5674 5673 5672 5671 5670 5668 5666 5664 5663 5661 5660 5659 5658 5657 5656 5655 5654 5653 5651 5650 5649 5647 5645 5643 5641 5639 5636 5633 5631 5628 5626 5624 5621 5618 5616 5613 5609 5606 5603 5600 5596 5592 5590 5587 5584 5580 5577 5574 5570 5566 5562 5559 5554 5550 5546 5542 5538 5534 5530 5524 5520 5515 5511 5508 5503 5496 5491 5486 5480 5474 5470 5466 5458 5450 5445 5441 5436 5431 5425 5421 5416